Weather History for Langdon, ND

Change the Weather History Date:

Tuesday, February 12, 2013

  Actual Average (KDVL) Record (KDVL)
Temperature  
Mean Temperature 12 °F -  
Max Temperature 24 °F 21 °F 46 °F (1977)
Min Temperature 1 °F 2 °F -25 °F (1955)
Degree Days  
Heating Degree Days 52    
Moisture  
Dew Point 14 °F    
Average Humidity 92    
Maximum Humidity 100    
Minimum Humidity 85    
Precipitation  
Precipitation 0.00 in - - ()
Sea Level Pressure  
Sea Level Pressure 29.70 in    
Wind  
Wind Speed 13 mph (WSW)    
Max Wind Speed 17 mph    
Max Gust Speed -    
Visibility 10 miles    
Events      
Averages and records for this station are not official NWS values.
T = Trace of Precipitation, MM = Missing Value Source: NWS Daily Summary

Daily Weather History Graph

Daily Weather History Graph

Search for Another Location

Airport:

Trip Planner

Search our weather history database for the weather conditions in past years. The results will help you decide how hot, cold, wet, or windy it might be!

Date:

Astronomy

Feb. 12, 2013 Rise Set
Actual Time 7:46 AM CST 5:50 PM CST
Civil Twilight 7:13 AM CST 6:22 PM CST
Nautical Twilight 6:36 AM CST 7:00 PM CST
Astronomical Twilight 5:59 AM CST 7:36 PM CST
Moon 8:26 AM CST (2/12) 9:13 PM CST (2/12)
Length of Visible Light 11h 09m
Length of Day
10h 04m
Waxing Crescent, 7% of the Moon is Illuminated
Feb 12
Waxing Crescent
Feb 17
First Quarter
Feb 25
Full
Mar 4
Last Quarter
Mar 11
New

Hourly Weather History & Observations

Time (CST) Temp. Windchill Dew Point Humidity Pressure Visibility Wind Dir Wind Speed Gust Speed Precip Events Conditions
12:15 AM 15.8 °F 0.9 °F 14.0 °F 93% 29.72 in 10.0 mi SW 15.0 mph - N/A   Mostly Cloudy
12:35 AM 14.0 °F -2.5 °F 14.0 °F 100% 29.71 in 10.0 mi SW 17.3 mph - N/A   Partly Cloudy
12:55 AM 14.0 °F -2.5 °F 12.2 °F 93% 29.70 in 10.0 mi SW 17.3 mph - N/A   Clear
1:15 AM 14.0 °F -2.0 °F 10.4 °F 86% 29.70 in 10.0 mi SW 16.1 mph - N/A   Clear
1:35 AM 14.0 °F -2.0 °F 10.4 °F 86% 29.69 in 10.0 mi SW 16.1 mph - N/A   Clear
1:55 AM 14.0 °F -1.4 °F 10.4 °F 86% 29.70 in 10.0 mi WSW 15.0 mph - N/A   Clear
2:15 AM 10.4 °F -6.0 °F 10.4 °F 100% 29.70 in 10.0 mi WSW 15.0 mph - N/A   Clear
2:35 AM 10.4 °F -6.0 °F 8.6 °F 92% 29.69 in 10.0 mi WSW 15.0 mph - N/A   Clear
2:55 AM 8.6 °F -7.7 °F 8.6 °F 100% 29.69 in 10.0 mi WSW 13.8 mph - N/A   Clear
3:15 AM 8.6 °F -7.7 °F 6.8 °F 92% 29.68 in 10.0 mi WSW 13.8 mph - N/A   Clear
3:35 AM 8.6 °F -7.0 °F 6.8 °F 92% 29.68 in 10.0 mi WSW 12.7 mph - N/A   Clear
3:55 AM 8.6 °F -6.3 °F 6.8 °F 92% 29.68 in 10.0 mi West 11.5 mph - N/A   Clear
4:15 AM 10.4 °F -5.4 °F 8.6 °F 92% 29.68 in 10.0 mi West 13.8 mph - N/A   Clear
4:35 AM 8.6 °F -4.7 °F 6.8 °F 92% 29.68 in 10.0 mi WSW 9.2 mph - N/A   Clear
4:55 AM 8.6 °F -5.5 °F 6.8 °F 92% 29.68 in 10.0 mi West 10.4 mph - N/A   Clear
5:15 AM 6.8 °F -8.6 °F 5.0 °F 92% 29.68 in 10.0 mi West 11.5 mph - N/A   Clear
5:35 AM 6.8 °F -9.3 °F 5.0 °F 92% 29.69 in 10.0 mi West 12.7 mph - N/A   Clear
5:55 AM 5.0 °F -10.8 °F 3.2 °F 92% 29.69 in 10.0 mi West 11.5 mph - N/A   Clear
6:15 AM 5.0 °F -10.0 °F 3.2 °F 92% 29.70 in 10.0 mi West 10.4 mph - N/A   Clear
6:35 AM 5.0 °F -10.8 °F 3.2 °F 92% 29.70 in 10.0 mi West 11.5 mph - N/A   Clear
6:55 AM 5.0 °F -10.0 °F 1.4 °F 85% 29.71 in 10.0 mi WNW 10.4 mph - N/A   Clear
7:15 AM 3.2 °F -9.1 °F -0.4 °F 85% 29.71 in 10.0 mi WNW 6.9 mph - N/A   Clear
7:35 AM 1.4 °F -11.3 °F -0.4 °F 92% 29.71 in 10.0 mi WSW 6.9 mph - N/A   Clear
7:55 AM 1.4 °F -13.5 °F -0.4 °F 92% 29.71 in 10.0 mi SW 9.2 mph - N/A   Clear
8:15 AM 1.4 °F -12.5 °F -0.4 °F 92% 29.71 in 10.0 mi SW 8.1 mph - N/A   Clear
8:35 AM 3.2 °F -10.3 °F -0.4 °F 85% 29.70 in 10.0 mi SW 8.1 mph - N/A   Clear
8:55 AM 5.0 °F -9.1 °F 1.4 °F 85% 29.71 in 10.0 mi SW 9.2 mph - N/A   Clear
9:15 AM 5.0 °F -8.1 °F 3.2 °F 92% 29.72 in 10.0 mi WSW 8.1 mph - N/A   Clear
9:35 AM 6.8 °F -9.3 °F 5.0 °F 92% 29.72 in 10.0 mi WSW 12.7 mph - N/A   Clear
9:55 AM 6.8 °F -7.8 °F 5.0 °F 92% 29.72 in 10.0 mi SW 10.4 mph - N/A   Clear
10:15 AM 8.6 °F -2.6 °F 6.8 °F 92% 29.72 in 10.0 mi WSW 6.9 mph - N/A   Clear
10:35 AM 8.6 °F -3.7 °F 6.8 °F 92% 29.72 in 10.0 mi SW 8.1 mph - N/A   Clear
10:55 AM 10.4 °F -3.3 °F 8.6 °F 92% 29.72 in 10.0 mi SW 10.4 mph - N/A   Clear
11:15 AM 14.0 °F 1.2 °F 10.4 °F 86% 29.72 in 10.0 mi SW 10.4 mph - N/A   Clear
11:35 AM 15.8 °F 3.4 °F 12.2 °F 86% 29.72 in 10.0 mi WSW 10.4 mph - N/A   Clear
11:55 AM 17.6 °F 6.4 °F 15.8 °F 93% 29.72 in 10.0 mi WSW 9.2 mph - N/A   Scattered Clouds
12:15 PM 19.4 °F 6.6 °F 17.6 °F 93% 29.72 in 10.0 mi West 12.7 mph - N/A   Overcast
12:35 PM 23.0 °F 10.6 °F 19.4 °F 86% 29.72 in 10.0 mi West 13.8 mph - N/A   Mostly Cloudy
12:55 PM 24.8 °F 12.9 °F 21.2 °F 86% 29.71 in 10.0 mi West 13.8 mph - N/A   Partly Cloudy
1:15 PM 24.8 °F 11.9 °F 23.0 °F 93% 29.71 in 10.0 mi West 16.1 mph - N/A   Partly Cloudy
1:35 PM 24.8 °F 11.9 °F 23.0 °F 93% 29.72 in 10.0 mi West 16.1 mph - N/A   Mostly Cloudy
1:55 PM 24.8 °F 11.5 °F 23.0 °F 93% 29.72 in 10.0 mi West 17.3 mph - N/A   Overcast
2:15 PM 24.8 °F 12.4 °F 23.0 °F 93% 29.71 in 10.0 mi West 15.0 mph - N/A   Overcast
2:35 PM 24.8 °F 12.9 °F 23.0 °F 93% 29.71 in 10.0 mi West 13.8 mph - N/A   Overcast
2:55 PM 24.8 °F 13.4 °F 23.0 °F 93% 29.71 in 10.0 mi West 12.7 mph - N/A   Mostly Cloudy
3:15 PM 24.8 °F 13.4 °F 23.0 °F 93% 29.71 in 10.0 mi West 12.7 mph - N/A   Mostly Cloudy
3:35 PM 24.8 °F 12.9 °F 23.0 °F 93% 29.71 in 10.0 mi WSW 13.8 mph - N/A   Mostly Cloudy
3:55 PM 24.8 °F 13.4 °F 23.0 °F 93% 29.71 in 10.0 mi West 12.7 mph - N/A   Overcast
4:15 PM 24.8 °F 13.4 °F 23.0 °F 93% 29.71 in 10.0 mi West 12.7 mph - N/A   Overcast
4:35 PM 24.8 °F 13.4 °F 23.0 °F 93% 29.71 in 10.0 mi West 12.7 mph - N/A   Overcast
4:55 PM 24.8 °F 13.4 °F 23.0 °F 93% 29.71 in 10.0 mi WSW 12.7 mph - N/A   Overcast
5:15 PM 24.8 °F 14.0 °F 23.0 °F 93% 29.70 in 10.0 mi WSW 11.5 mph - N/A   Overcast
5:35 PM 24.8 °F 14.0 °F 23.0 °F 93% 29.70 in 10.0 mi WSW 11.5 mph - N/A   Overcast
5:55 PM 24.8 °F 14.0 °F 23.0 °F 93% 29.71 in 10.0 mi West 11.5 mph - N/A   Overcast
6:15 PM 24.8 °F 12.9 °F 23.0 °F 93% 29.70 in 10.0 mi WSW 13.8 mph - N/A   Overcast
6:35 PM 23.0 °F 10.6 °F 21.2 °F 93% 29.70 in 10.0 mi West 13.8 mph - N/A   Overcast
6:55 PM 23.0 °F 10.1 °F 21.2 °F 93% 29.70 in 10.0 mi West 15.0 mph - N/A   Overcast
7:15 PM 23.0 °F 10.6 °F 19.4 °F 86% 29.70 in 10.0 mi WSW 13.8 mph - N/A   Overcast
7:35 PM 21.2 °F 8.3 °F 19.4 °F 93% 29.70 in 10.0 mi West 13.8 mph - N/A   Mostly Cloudy
7:55 PM 23.0 °F 10.1 °F 19.4 °F 86% 29.69 in 10.0 mi West 15.0 mph - N/A   Mostly Cloudy
8:35 PM 21.2 °F 7.3 °F 19.4 °F 93% 29.69 in 10.0 mi West 16.1 mph - N/A   Clear
8:55 PM 21.2 °F 7.8 °F 19.4 °F 93% 29.69 in 10.0 mi West 15.0 mph - N/A   Clear
9:15 PM 23.0 °F 10.1 °F 21.2 °F 93% 29.68 in 10.0 mi West 15.0 mph - N/A   Clear
9:35 PM 23.0 °F 11.7 °F 19.4 °F 86% 29.67 in 10.0 mi West 11.5 mph - N/A   Clear
9:55 PM 21.2 °F 8.9 °F 19.4 °F 93% 29.66 in 10.0 mi West 12.7 mph - N/A   Clear
10:15 PM 23.0 °F 10.6 °F 21.2 °F 93% 29.67 in 10.0 mi West 13.8 mph - N/A   Clear
10:35 PM 23.0 °F 11.1 °F 23.0 °F 100% 29.66 in 10.0 mi West 12.7 mph - N/A   Clear
10:55 PM 23.0 °F 11.7 °F 21.2 °F 93% 29.65 in 10.0 mi West 11.5 mph - N/A   Clear
11:15 PM 23.0 °F 11.1 °F 23.0 °F 100% 29.65 in 10.0 mi West 12.7 mph - N/A   Clear
11:35 PM 21.2 °F 9.5 °F 21.2 °F 100% 29.65 in 10.0 mi West 11.5 mph - N/A   Clear
11:55 PM 21.2 °F 7.8 °F 21.2 °F 100% 29.65 in 10.0 mi West 15.0 mph - N/A   Clear